• In Czech Republic
  • List of Countries
  • For 7 days
  • Water Temperature
  • Satellite Maps
  • Weather Map
  • Weather Widgets
  • user-avatar
    Login

    Hourly Weather Maripasoula

    Today, 22 October, Monday

    Time Temperature Precipitation Wind Pressure Humidity
    00:00 +27°C° 0 mm 2 mps 744 mmHg 74%
    01:00 +26°C° 0 mm 2 mps 744 mmHg 78%
    02:00 +25°C° 0 mm 1 mps 744 mmHg 82%
    03:00 +25°C° 0 mm 1 mps 744 mmHg 85%
    04:00 +24°C° 0 mm 1 mps 744 mmHg 89%
    05:00 +24°C° 0 mm 1 mps 744 mmHg 92%
    06:00 +25°C° 0 mm 1 mps 745 mmHg 85%
    07:00 +27°C° 0 mm 1 mps 745 mmHg 78%
    08:00 +28°C° 0 mm 2 mps 746 mmHg 70%
    09:00 +31°C° 0 mm 2 mps 746 mmHg 59%
    10:00 +35°C° 0 mm 2 mps 745 mmHg 47%
    11:00 +38°C° 0 mm 2 mps 745 mmHg 35%
    12:00 +39°C° 0 mm 2 mps 744 mmHg 32%
    13:00 +39°C° 0 mm 2 mps 743 mmHg 29%
    14:00 +40°C° 0 mm 2 mps 742 mmHg 26%
    15:00 +37°C° 0 mm 1 mps 742 mmHg 31%
    16:00 +36°C° 0 mm 1 mps 742 mmHg 37%
    17:00 +34°C° 0 mm 1 mps 742 mmHg 42%
    18:00 +33°C° 0 mm 1 mps 743 mmHg 45%
    19:00 +32°C° 0 mm 1 mps 744 mmHg 47%
    20:00 +32°C° 0 mm 1 mps 744 mmHg 49%
    21:00 +30°C° 0 mm 1 mps 745 mmHg 57%
    22:00 +29°C° 0 mm 1 mps 745 mmHg 64%
    23:00 +28°C° 0 mm 1 mps 745 mmHg 71%

    Tomorrow, 23 October, Tuesday

    Time Temperature Precipitation Wind Pressure Humidity
    00:00 +27°C° 0 mm 1 mps 745 mmHg 75%
    01:00 +26°C° 0 mm 1 mps 745 mmHg 79%
    02:00 +26°C° 0 mm 1 mps 744 mmHg 83%
    03:00 +25°C° 0 mm 1 mps 744 mmHg 86%
    04:00 +25°C° 0 mm 1 mps 744 mmHg 88%
    05:00 +22°C° 0 mm 0 mps 744 mmHg 90%
    06:00 +26°C° 0 mm 1 mps 745 mmHg 84%
    07:00 +27°C° 0 mm 1 mps 746 mmHg 78%
    08:00 +28°C° 0 mm 1 mps 747 mmHg 72%
    09:00 +31°C° 0 mm 2 mps 746 mmHg 59%
    10:00 +35°C° 0 mm 2 mps 746 mmHg 46%
    11:00 +38°C° 0 mm 2 mps 746 mmHg 33%
    12:00 +38°C° 0 mm 2 mps 745 mmHg 30%
    13:00 +39°C° 0 mm 2 mps 744 mmHg 27%
    14:00 +40°C° 0 mm 2 mps 743 mmHg 23%
    15:00 +38°C° 0 mm 2 mps 743 mmHg 28%
    16:00 +35°C° 0 mm 1 mps 743 mmHg 33%
    17:00 +34°C° 0 mm 1 mps 743 mmHg 38%
    18:00 +32°C° 0 mm 1 mps 744 mmHg 42%
    19:00 +31°C° 0 mm 1 mps 744 mmHg 45%
    20:00 +30°C° 0 mm 2 mps 745 mmHg 48%
    21:00 +29°C° 0 mm 2 mps 746 mmHg 52%
    22:00 +28°C° 0 mm 2 mps 746 mmHg 56%
    23:00 +27°C° 0 mm 2 mps 746 mmHg 59%

    Day after tomorrow, 24 October, Wednesday

    Time Temperature Precipitation Wind Pressure Humidity
    00:00 +27°C° 0 mm 2 mps 746 mmHg 65%
    01:00 +26°C° 0 mm 2 mps 745 mmHg 71%
    02:00 +25°C° 0 mm 2 mps 745 mmHg 77%
    03:00 +25°C° 0 mm 2 mps 745 mmHg 81%
    04:00 +24°C° 0 mm 2 mps 745 mmHg 85%
    05:00 +24°C° 0 mm 1 mps 745 mmHg 89%
    06:00 +26°C° 0 mm 2 mps 746 mmHg 81%
    07:00 +28°C° 0 mm 2 mps 746 mmHg 72%
    08:00 +30°C° 0 mm 2 mps 746 mmHg 63%
    09:00 +32°C° 0 mm 2 mps 746 mmHg 54%
    10:00 +35°C° 0 mm 2 mps 746 mmHg 45%
    11:00 +37°C° 0 mm 2 mps 746 mmHg 36%
    12:00 +38°C° 0 mm 2 mps 745 mmHg 33%
    13:00 +39°C° 0 mm 2 mps 744 mmHg 30%
    14:00 +40°C° 0 mm 2 mps 743 mmHg 28%
    15:00 +38°C° 0 mm 2 mps 743 mmHg 32%
    16:00 +36°C° 0 mm 1 mps 743 mmHg 37%
    17:00 +34°C° 0 mm 1 mps 743 mmHg 41%
    18:00 +33°C° 0 mm 1 mps 743 mmHg 44%
    19:00 +32°C° 0 mm 2 mps 744 mmHg 46%
    20:00 +31°C° 0 mm 2 mps 745 mmHg 49%
    21:00 +30°C° 0 mm 2 mps 745 mmHg 54%
    22:00 +29°C° 0 mm 2 mps 745 mmHg 59%
    23:00 +28°C° 0 mm 2 mps 746 mmHg 64%

    25 October, Thursday

    Time Temperature Precipitation Wind Pressure Humidity
    00:00 +26°C° 0 mm 1 mps 745 mmHg 71%
    01:00 +25°C° 0 mm 1 mps 745 mmHg 78%
    02:00 +24°C° 0 mm 1 mps 744 mmHg 86%
    03:00 +24°C° 0 mm 1 mps 744 mmHg 90%
    04:00 +23°C° 0 mm 1 mps 745 mmHg 94%
    05:00 +23°C° 0 mm 1 mps 745 mmHg 98%
    06:00 +25°C° 0 mm 1 mps 746 mmHg 87%
    07:00 +28°C° 0 mm 1 mps 746 mmHg 77%
    08:00 +30°C° 0 mm 2 mps 747 mmHg 66%
    09:00 +32°C° 0 mm 2 mps 746 mmHg 57%
    10:00 +35°C° 0 mm 2 mps 746 mmHg 48%
    11:00 +38°C° 0 mm 2 mps 746 mmHg 39%
    12:00 +36°C° 0 mm 1 mps 745 mmHg 42%
    13:00 +35°C° 0 mm 1 mps 744 mmHg 45%
    14:00 +34°C° 0 mm 1 mps 743 mmHg 48%
    15:00 +33°C° 0.2 mm 1 mps 743 mmHg 55%
    16:00 +32°C° 0.2 mm 1 mps 744 mmHg 63%
    17:00 +30°C° 0.2 mm 1 mps 744 mmHg 70%
    18:00 +29°C° 0.3 mm 1 mps 744 mmHg 77%
    19:00 +27°C° 0.3 mm 1 mps 745 mmHg 83%
    20:00 +26°C° 0.3 mm 1 mps 745 mmHg 90%
    21:00 +26°C° 0 mm 1 mps 745 mmHg 91%
    22:00 +25°C° 0 mm 1 mps 746 mmHg 92%
    23:00 +25°C° 0 mm 1 mps 746 mmHg 93%

    26 October, Friday

    Time Temperature Precipitation Wind Pressure Humidity
    00:00 +25°C° 0 mm 1 mps 745 mmHg 95%
    01:00 +24°C° 0 mm 1 mps 745 mmHg 96%
    02:00 +24°C° 0 mm 1 mps 744 mmHg 98%
    03:00 +24°C° 0 mm 1 mps 745 mmHg 98%
    04:00 +22°C° 0 mm 0 mps 745 mmHg 98%
    05:00 +22°C° 0 mm 0 mps 745 mmHg 99%
    06:00 +26°C° 0 mm 1 mps 746 mmHg 89%
    07:00 +28°C° 0 mm 1 mps 747 mmHg 80%
    08:00 +29°C° 0 mm 1 mps 747 mmHg 71%
    09:00 +32°C° 0 mm 1 mps 747 mmHg 61%
    10:00 +35°C° 0 mm 2 mps 746 mmHg 50%
    11:00 +38°C° 0 mm 2 mps 746 mmHg 40%
    12:00 +36°C° 0 mm 1 mps 745 mmHg 42%
    13:00 +35°C° 0 mm 1 mps 744 mmHg 45%
    14:00 +35°C° 0 mm 1 mps 744 mmHg 48%
    15:00 +33°C° 0.4 mm 1 mps 744 mmHg 55%
    16:00 +31°C° 0.4 mm 1 mps 744 mmHg 63%
    17:00 +30°C° 0.4 mm 2 mps 745 mmHg 71%
    18:00 +29°C° 0.4 mm 1 mps 745 mmHg 76%
    19:00 +27°C° 0.4 mm 1 mps 746 mmHg 82%
    20:00 +26°C° 0.4 mm 1 mps 746 mmHg 87%
    21:00 +26°C° 0 mm 1 mps 746 mmHg 89%
    22:00 +25°C° 0 mm 1 mps 746 mmHg 90%
    23:00 +25°C° 0 mm 1 mps 746 mmHg 92%

    27 October, Saturday

    Time Temperature Precipitation Wind Pressure Humidity
    00:00 +25°C° 0 mm 1 mps 745 mmHg 94%
    01:00 +25°C° 0 mm 1 mps 745 mmHg 95%
    02:00 +24°C° 0 mm 1 mps 744 mmHg 97%
    03:00 +24°C° 0 mm 1 mps 745 mmHg 98%
    04:00 +22°C° 0 mm 0 mps 745 mmHg 98%
    05:00 +22°C° 0 mm 0 mps 745 mmHg 99%
    06:00 +26°C° 0 mm 1 mps 746 mmHg 89%
    07:00 +28°C° 0 mm 1 mps 747 mmHg 79%
    08:00 +30°C° 0 mm 1 mps 747 mmHg 68%
    09:00 +32°C° 0 mm 2 mps 747 mmHg 59%
    10:00 +35°C° 0 mm 2 mps 747 mmHg 49%
    11:00 +38°C° 0 mm 2 mps 746 mmHg 39%
    12:00 +37°C° 0.1 mm 2 mps 745 mmHg 43%
    13:00 +36°C° 0.1 mm 2 mps 745 mmHg 46%
    14:00 +35°C° 0.1 mm 2 mps 744 mmHg 50%
    15:00 +34°C° 0.1 mm 2 mps 744 mmHg 55%
    16:00 +32°C° 0.1 mm 1 mps 744 mmHg 60%
    17:00 +31°C° 0.1 mm 1 mps 745 mmHg 65%
    18:00 +30°C° 0 mm 1 mps 745 mmHg 68%
    19:00 +29°C° 0 mm 1 mps 746 mmHg 71%
    20:00 +27°C° 0 mm 1 mps 746 mmHg 75%
    21:00 +27°C° 0 mm 1 mps 746 mmHg 78%
    22:00 +26°C° 0 mm 1 mps 746 mmHg 82%
    23:00 +26°C° 0 mm 1 mps 746 mmHg 86%
    Show more